sat.trackr.live / text

‹ back to catalog

STARLINK-36055

NORAD 66846 · 2025-280AB

PAYLOAD ACTIVE UNKNOWN

§ Identity

Operator
Country
US
Launch date
2025-12-02
Launch site
AFWTR
Launch vehicle
Mass (kg)
RCS (m²)

Purposes: comms

External: N2YO · Heavens-Above · Gunter

§ Orbital elements

Epoch: 2026-05-25T03:12:48.711168Z

Period
96.11 min
Inclination
70.0008°
Eccentricity
0.0003774
Mean motion
14.98338000 rev/d
Perigee alt
569.4 km
Apogee alt
574.7 km
Semi-major
6,950.2 km
B*
3.0827e-4
RAAN
141.8295°
Arg perigee
267.0808°
Mean anomaly
92.9920°
Rev number
2,753

§ Raw data

STARLINK-360551 66846U 25280AB  26145.13389712  .00003588  00000+0  30827-3 0  99952 66846  70.0008 141.8295 0003774 267.0808  92.9920 14.98338000 27533

JSON: /api/v1/satellites/66846 · /tle

For live sub-satellite position, see the globe view (requires WebGL).

§ Visibility from observer

Set your observer location to see the next 7 days of passes ≥ 10°. The values pass through the URL so the page stays shareable.

No JS? Fill the form by hand. The geolocation button needs JavaScript.